Powrót do katalogu

FENGYUN 1C DEB

AktywnySSO
NORAD 29836·DEBRIS·🇨🇳 China

Wystrzelony May 10, 1999 z Taiyuan Satellite Launch Center

Loading…

Następne Przeloty (najbliższe 24 godziny)

TLE

ŚwieżeSource: Space-Track

Epoka: Sep 14, 2026, 18:10 UTC

1 29836U 99025EE  26257.75749516  .00001082  00000-0  22383-3 0  9991
2 29836  98.1874 353.0404 0153317  68.8240  80.9317 14.55196615675687

Śledź FENGYUN 1C DEB w czasie rzeczywistym z AllMySat

Download on the App Store